Tracking 27420 objects as of 10-Jun-2023
HD Live streaming from Space Station
objects crossing your sky now

CZ-2C DEB

Track CZ-2C DEB now!
10-day predictions


NORAD ID: 40266
Int'l Code: 2014-059F
Perigee: 689.3 km
Apogee: 948.8 km
Inclination: 98.3 °
Period: 101.1 minutes
Semi major axis: 7190 km
RCS: Unknown
Launch date: September 28, 2014
Source: People's Republic of China (PRC)
Launch site: Jiuquan Satellite Launch Center, China (JSC)

Note: This is SATELLITE DEBRIS
Your satellite tracking list
Your tracking list is empty




NASA's NSSDC Master Catalog

Two Line Element Set (TLE):
1 40266U 14059F   23161.30340023  .00001364  00000-0  51873-3 0  9996
2 40266  98.3399  99.0638 0180511 240.1077 118.2064 14.23980843451209
Source of the keplerian elements: AFSPC